CW5752 Weather Reports


Display with metric or nautical units.
time (UTC)temp
F
wind
direction
speed
MPH
gust
MPH
rain 1hr
in
rain 24hr
in
rain mn
in
humidity
%
barometer
mb
20260509012521 65 160 0.0 2.0 0.00 0.00 0.00 63 1007.7
20260509011521 66 159 0.0 4.0 0.00 0.00 0.00 61 1007.7
20260509010521 67 169 0.0 2.0 0.00 0.00 0.00 59 1007.9
20260509005521 67 169 0.0 2.0 0.00 0.00 0.00 59 1007.9
20260509004521 68 167 1.0 4.0 0.00 0.00 0.00 57 1007.9
20260509003515 68 169 1.0 6.0 0.00 0.00 0.00 57 1007.9
20260509002521 69 183 1.0 4.0 0.00 0.00 0.00 56 1008.0
20260509001521 69 192 0.0 2.0 0.00 0.00 0.00 57 1007.8
20260509000521 69 171 0.0 2.0 0.00 0.00 0.00 58 1008.0
20260508235521 70 175 1.0 6.0 0.00 0.00 0.00 56 1008.1
20260508234521 70 165 1.0 5.0 0.00 0.00 0.00 56 1008.2
20260508233521 71 190 1.0 6.0 0.00 0.00 0.00 55 1008.4
20260508232516 71 177 0.0 2.0 0.00 0.00 0.00 57 1008.6
20260508231541 71 184 1.0 5.0 0.00 0.00 0.00 56 1008.6
20260508230521 72 181 1.0 7.0 0.00 0.00 0.00 53 1008.6
20260508225521 71 175 2.0 11.0 0.00 0.00 0.00 53 1008.6
20260508224541 72 178 2.0 10.0 0.00 0.00 0.00 54 1008.7
20260508223521 72 194 3.0 7.0 0.00 0.00 0.00 53 1008.7
20260508222516 73 186 3.0 8.0 0.00 0.00 0.00 52 1008.8
20260508221516 72 179 3.0 10.0 0.00 0.00 0.00 52 1008.9
20260508220521 73 195 3.0 11.0 0.00 0.00 0.00 53 1008.9
20260508215521 74 191 4.0 13.0 0.00 0.00 0.00 50 1008.7
20260508214521 74 183 3.0 11.0 0.00 0.00 0.00 51 1008.8
20260508213519 74 188 3.0 10.0 0.00 0.00 0.00 49 1008.9
20260508212521 74 183 4.0 12.0 0.00 0.00 0.00 48 1008.9
20260508211516 74 207 4.0 13.0 0.00 0.00 0.00 50 1008.9
20260508210521 74 188 5.0 13.0 0.00 0.00 0.00 50 1009.0
20260508205541 74 194 6.0 14.0 0.00 0.00 0.00 46 1009.2
20260508204601 74 201 5.0 12.0 0.00 0.00 0.00 51 1009.3
20260508203521 75 210 6.0 18.0 0.00 0.00 0.00 48 1009.3
20260508202521 74 204 6.0 12.0 0.00 0.00 0.00 52 1009.6
20260508201516 74 191 5.0 10.0 0.00 0.00 0.00 49 1009.5
20260508200515 74 194 2.0 11.0 0.00 0.00 0.00 52 1009.6
20260508195541 75 186 3.0 12.0 0.00 0.00 0.00 52 1009.7
20260508194621 74 195 6.0 14.0 0.00 0.00 0.00 48 1009.9
20260508193520 74 190 5.0 13.0 0.00 0.00 0.00 50 1010.1
20260508192521 74 196 6.0 13.0 0.00 0.00 0.00 50 1010.3
20260508191521 74 189 4.0 9.0 0.00 0.00 0.00 51 1010.5
20260508190516 74 194 4.0 14.0 0.00 0.00 0.00 54 1010.7
20260508185521 73 175 4.0 12.0 0.00 0.00 0.00 51 1010.9
20260508184521 74 196 3.0 10.0 0.00 0.00 0.00 52 1011.0
20260508183521 73 185 3.0 13.0 0.00 0.00 0.00 57 1011.2
20260508182541 72 178 3.0 9.0 0.00 0.00 0.00 51 1011.1
20260508181521 73 197 2.0 10.0 0.00 0.00 0.00 54 1011.3
20260508180541 72 165 2.0 10.0 0.00 0.00 0.00 56 1011.4
20260508175515 72 181 3.0 12.0 0.00 0.00 0.00 54 1011.6
20260508174521 71 171 2.0 9.0 0.00 0.00 0.00 56 1011.8
20260508173520 71 173 4.0 12.0 0.00 0.00 0.00 56 1012.1
20260508172521 71 182 3.0 11.0 0.00 0.00 0.00 55 1012.3
20260508171521 72 193 3.0 11.0 0.00 0.00 0.00 57 1012.4
20260508170521 71 208 4.0 9.0 0.00 0.00 0.00 57 1012.6
20260508165516 70 187 2.0 10.0 0.00 0.00 0.00 57 1012.7
20260508164516 70 189 3.0 11.0 0.00 0.00 0.00 55 1013.0
20260508163541 69 193 3.0 13.0 0.00 0.00 0.00 58 1013.1
20260508162520 68 190 4.0 10.0 0.00 0.00 0.00 56 1013.2
20260508161521 68 190 3.0 11.0 0.00 0.00 0.00 60 1013.3
20260508160519 67 182 2.0 9.0 0.00 0.00 0.00 58 1013.2
20260508155521 67 192 4.0 9.0 0.00 0.00 0.00 56 1013.5
20260508154536 66 188 4.0 14.0 0.00 0.00 0.00 60 1013.6
20260508153521 66 171 3.0 12.0 0.00 0.00 0.00 60 1013.6
20260508152520 66 187 3.0 15.0 0.00 0.00 0.00 58 1013.5
20260508151601 65 179 3.0 10.0 0.00 0.00 0.00 59 1013.5
20260508150521 65 192 3.0 10.0 0.00 0.00 0.00 60 1013.7
20260508145521 65 184 4.0 8.0 0.00 0.00 0.00 61 1013.8
20260508144516 65 191 4.0 11.0 0.00 0.00 0.00 59 1014.0
20260508143536 64 191 2.0 7.0 0.00 0.00 0.00 63 1014.0
20260508142541 64 174 3.0 10.0 0.00 0.00 0.00 61 1014.1
20260508141521 63 188 4.0 9.0 0.00 0.00 0.00 62 1014.3
20260508140520 63 199 2.0 6.0 0.00 0.00 0.00 65 1014.4
20260508135540 62 214 1.0 8.0 0.00 0.00 0.00 63 1014.5
20260508134520 61 190 3.0 7.0 0.00 0.00 0.00 64 1014.4
20260508133516 60 190 3.0 9.0 0.00 0.00 0.00 66 1014.6
20260508132520 59 194 1.0 8.0 0.00 0.00 0.00 68 1014.5
20260508131521 57 187 3.0 9.0 0.00 0.00 0.00 68 1014.4
20260508130521 56 193 3.0 8.0 0.00 0.00 0.00 69 1014.6
20260508125520 55 176 2.0 7.0 0.00 0.00 0.00 69 1014.7
20260508124520 54 178 1.0 5.0 0.00 0.00 0.00 70 1014.6
20260508123521 53 164 1.0 5.0 0.00 0.00 0.00 70 1014.5
20260508122515 52 155 0.0 2.0 0.00 0.00 0.00 72 1014.5
20260508121541 51 0.0 0.0 0.00 0.00 0.00 74 1014.4
20260508120541 50 0.0 0.0 0.00 0.00 0.00 75 1014.5
20260508115521 50 0.0 0.0 0.00 0.00 0.00 75 1014.4
20260508114520 50 0.0 0.0 0.00 0.00 0.00 75 1014.4
20260508113520 49 0.0 0.0 0.00 0.00 0.00 74 1014.3
20260508112515 49 0.0 0.0 0.00 0.00 0.00 73 1014.3
20260508111536 50 0.0 2.0 0.00 0.00 0.00 72 1014.2
20260508110521 50 0.0 2.0 0.00 0.00 0.00 73 1014.2
20260508105520 50 155 0.0 2.0 0.00 0.00 0.00 72 1014.2
20260508104520 50 0.0 0.0 0.00 0.00 0.00 72 1014.2
20260508103520 50 0.0 2.0 0.00 0.00 0.00 71 1014.1
20260508102541 51 155 0.0 2.0 0.00 0.00 0.00 70 1014.1
20260508101515 51 154 0.0 2.0 0.00 0.00 0.00 69 1014.1
20260508100521 51 156 0.0 4.0 0.00 0.00 0.00 69 1014.2
20260508095521 51 175 0.0 2.0 0.00 0.00 0.00 68 1014.2
20260508094520 51 175 0.0 2.0 0.00 0.00 0.00 68 1014.2
20260508093521 51 175 0.0 2.0 0.00 0.00 0.00 69 1014.1
20260508092521 51 175 0.0 2.0 0.00 0.00 0.00 69 1014.1
20260508091521 51 178 1.0 5.0 0.00 0.00 0.00 68 1014.2
20260508090536 51 167 0.0 3.0 0.00 0.00 0.00 69 1014.1
20260508085521 51 167 0.0 2.0 0.00 0.00 0.00 70 1014.1
20260508084520 51 167 0.0 2.0 0.00 0.00 0.00 71 1014.3
20260508083520 51 0.0 0.0 0.00 0.00 0.00 70 1014.2
20260508082520 51 167 0.0 2.0 0.00 0.00 0.00 70 1014.3
20260508081520 51 167 0.0 2.0 0.00 0.00 0.00 70 1014.4
20260508080515 51 0.0 2.0 0.00 0.00 0.00 71 1014.4
20260508075515 51 167 0.0 2.0 0.00 0.00 0.00 71 1014.5
20260508074520 50 0.0 2.0 0.00 0.00 0.00 72 1014.5
20260508073520 50 0.0 0.0 0.00 0.00 0.00 73 1014.6
20260508072520 50 0.0 0.0 0.00 0.00 0.00 73 1014.7
20260508071521 50 0.0 0.0 0.00 0.00 0.00 74 1014.8
20260508070520 49 0.0 1.0 0.00 0.00 0.00 77 1014.9
20260508065515 50 167 0.0 2.0 0.00 0.00 0.00 75 1014.9
20260508064515 51 0.0 0.0 0.00 0.00 0.00 71 1015.0
20260508063521 51 0.0 1.0 0.00 0.00 0.00 70 1015.0
20260508062520 51 167 0.0 2.0 0.00 0.00 0.00 69 1015.1
20260508061520 51 167 0.0 2.0 0.00 0.00 0.00 69 1015.3
20260508060518 52 0.0 2.0 0.00 0.00 0.00 67 1015.2
20260508055520 52 165 0.0 2.0 0.00 0.00 0.00 67 1015.2
20260508054515 52 169 0.0 2.0 0.00 0.00 0.00 67 1015.1
20260508053520 53 169 0.0 2.0 0.00 0.00 0.00 66 1015.0
20260508052520 53 169 0.0 2.0 0.00 0.00 0.00 67 1015.1
20260508051521 53 169 0.0 2.0 0.00 0.00 0.00 65 1015.0
20260508050520 53 169 0.0 3.0 0.00 0.00 0.00 65 1015.1
20260508045521 53 186 0.0 2.0 0.00 0.00 0.00 65 1015.1
20260508044541 53 188 0.0 2.0 0.00 0.00 0.00 64 1015.3
20260508043521 54 187 0.0 3.0 0.00 0.00 0.00 63 1015.3
20260508042522 54 187 0.0 3.0 0.00 0.00 0.00 63 1015.4
20260508041516 54 191 0.0 4.0 0.00 0.00 0.00 61 1015.4
20260508040521 54 191 1.0 5.0 0.00 0.00 0.00 62 1015.4
20260508035521 54 194 0.0 3.0 0.00 0.00 0.00 62 1015.2
20260508034541 54 197 0.0 2.0 0.00 0.00 0.00 62 1015.1
20260508033541 54 197 0.0 2.0 0.00 0.00 0.00 64 1015.1
20260508032522 54 197 0.0 2.0 0.00 0.00 0.00 65 1015.0
20260508031516 55 197 0.0 2.0 0.00 0.00 0.00 66 1014.9
20260508030536 55 197 0.0 2.0 0.00 0.00 0.00 63 1014.9
20260508025521 55 196 0.0 2.0 0.00 0.00 0.00 62 1014.8
20260508024521 56 0.0 2.0 0.00 0.00 0.00 61 1014.8
20260508023521 56 197 0.0 2.0 0.00 0.00 0.00 59 1014.8
20260508022540 56 197 0.0 3.0 0.00 0.00 0.00 61 1014.7
20260508021522 56 198 0.0 2.0 0.00 0.00 0.00 63 1014.6
20260508020516 57 198 0.0 4.0 0.00 0.00 0.00 61 1014.6
20260508015521 57 200 0.0 3.0 0.00 0.00 0.00 62 1014.4
20260508014521 57 200 0.0 2.0 0.00 0.00 0.00 61 1014.3
20260508013521 57 0.0 0.0 0.00 0.00 0.00 64 1014.1